"Pseudo-MPEC" for P112fxD

Created 2020 Jul 10 16:07:07 UT using Find_Orb

Click here for an explanation of pseudo-MPECs

 
 Astrometry: 
     P112fxD  C2020 06 28PuAstrometry49Vl`12DUNEFVCwC/DU/9XK$FqGZaQ/OjeA*QSO,F51
     P112fxD  C2020 06 28[t,lq)i['EjA#oyredacted;#g8NQGclickWvgyZ,/$hhere]1Z/F51
     P112fxD  C2020 06 28nIjvH4q)p)pJAxforUCV+d/f\explanation;O`)3K=v@AfCT3I]F51
     P112fxD ^C2020 06 29.45239719 45 24.741-39 23 41.84   ~6TJ7 21.72GVNEOCP568
     P112fxD ^C2020 06 29.45429219 45 24.813-39 23 40.35   ~6TJ7 21.54GVNEOCP568

Station data:
(568) Mauna Kea  (N19.826116 W155.472200)  US/Hawaii.
(F51) Pan-STARRS 1, Haleakala  (N20.707235 W156.255910)  US/Hawaii.
   Observers N. Primak, A. Schultz, S. Watters, J. Thiel, T. Goggia. Measurer
   PS1 Science Consortium. 1.8-m Ritchey-Chrétien + CCD.

Orbital elements:  P112fxD
   Perihelion 2020 Jun 26.117197 +/- 41.5 TT =  2:48:45 (JD 2459026.617197)
Epoch 2020 Jun 29.0 TT = JDT 2459029.5   Earth MOID: 0.2944   Ma: 0.0159
M   0.85444546 +/- 11               (J2000 ecliptic)          AutoNEOCP
n   0.29639403 +/- 0.161            Peri.  309.51487 +/- 70
a   2.22786948 +/- 0.808            Node   328.48588 +/- 34
e   0.4168524 +/- 0.184             Incl.    5.47970 +/- 3.5
P   3.33                   H 23.1   G  0.15   U 11.5  SR
q 1.29917669 +/- 0.163    Q 3.15656227 +/- 3.76
From 5 observations 2020 June 28-29 (24.1 hr); mean residual 0".12
Residuals in arcseconds: 
200628 F51  .25+  .05-    200628 F51  .26-  .03+    200629 568  .01-  .01+    
200628 F51  .00   .02+    200629 568  .02+  .01-    

Ephemerides (geocentric):
Date (UTC) HH   RA              Dec         delta   r     elong  mag " sig PA
---- -- -- --  -------------   -----------  ------ ------ -----  --- ---- ---
2020 07 10 16  19 53 10.571   -36 24 39.49  .29915 1.3069 164.1 21.8 3703 119
2020 07 10 17  19 53 11.854   -36 23 53.78  .29917 1.3069 164.1 21.8 3737 119
2020 07 10 18  19 53 13.135   -36 23 08.03  .29920 1.3070 164.1 21.8 3771 119
2020 07 10 19  19 53 14.413   -36 22 22.25  .29922 1.3070 164.1 21.8 3805 119
2020 07 10 20  19 53 15.688   -36 21 36.42  .29924 1.3070 164.1 21.8 3839 118
2020 07 10 21  19 53 16.960   -36 20 50.56  .29927 1.3071 164.2 21.8 3874 118
2020 07 10 22  19 53 18.230   -36 20 04.66  .29929 1.3071 164.2 21.8 3908 118
2020 07 10 23  19 53 19.497   -36 19 18.73  .29931 1.3072 164.2 21.8 3943 118
2020 07 11 00  19 53 20.762   -36 18 32.76  .29934 1.3072 164.2 21.8 3979 118
2020 07 11 01  19 53 22.024   -36 17 46.75  .29936 1.3073 164.3 21.8 4014 118
2020 07 11 02  19 53 23.283   -36 17 00.71  .29938 1.3073 164.3 21.8 4050 118
2020 07 11 03  19 53 24.539   -36 16 14.63  .29941 1.3074 164.3 21.8 4086 118
2020 07 11 04  19 53 25.793   -36 15 28.51  .29943 1.3074 164.3 21.8 4123 118
2020 07 11 05  19 53 27.044   -36 14 42.35  .29946 1.3074 164.3 21.8 4159 118
2020 07 11 06  19 53 28.293   -36 13 56.17  .29948 1.3075 164.4 21.8 4196 118
2020 07 11 07  19 53 29.539   -36 13 09.94  .29951 1.3075 164.4 21.8 4233 118
2020 07 11 08  19 53 30.782   -36 12 23.68  .29953 1.3076 164.4 21.8 4271 118
2020 07 11 09  19 53 32.023   -36 11 37.38  .29956 1.3076 164.4 21.8 4308 118
2020 07 11 10  19 53 33.261   -36 10 51.04  .29959 1.3077 164.4 21.8 4346 118
2020 07 11 11  19 53 34.497   -36 10 04.67  .29961 1.3077 164.5 21.8 4385 118
2020 07 11 12  19 53 35.730   -36 09 18.27  .29964 1.3078 164.5 21.8 4423 118
2020 07 11 13  19 53 36.961   -36 08 31.83  .29966 1.3078 164.5 21.8 4462 118
2020 07 11 14  19 53 38.189   -36 07 45.35  .29969 1.3079 164.5 21.8 4501 118
2020 07 11 15  19 53 39.414   -36 06 58.84  .29972 1.3079 164.5 21.8 4540 118
2020 07 11 16  19 53 40.637   -36 06 12.29  .29975 1.3080 164.6 21.8 4580 118
2020 07 11 17  19 53 41.857   -36 05 25.71  .29977 1.3080 164.6 21.8 4620 118
2020 07 11 18  19 53 43.075   -36 04 39.09  .29980 1.3081 164.6 21.8 4660 118
2020 07 11 19  19 53 44.291   -36 03 52.43  .29983 1.3081 164.6 21.8 4701 118
2020 07 11 20  19 53 45.504   -36 03 05.74  .29986 1.3081 164.6 21.8 4741 118
2020 07 11 21  19 53 46.714   -36 02 19.02  .29988 1.3082 164.6 21.8 4783 118
2020 07 11 22  19 53 47.922   -36 01 32.26  .29991 1.3082 164.7 21.8 4824 117
2020 07 11 23  19 53 49.127   -36 00 45.47  .29994 1.3083 164.7 21.8 4866 117
2020 07 12 00  19 53 50.330   -35 59 58.64  .29997 1.3083 164.7 21.8 4908 117
2020 07 12 01  19 53 51.531   -35 59 11.78  .30000 1.3084 164.7 21.8 4950 117
2020 07 12 02  19 53 52.729   -35 58 24.88  .30003 1.3084 164.7 21.8 4993 117
2020 07 12 03  19 53 53.924   -35 57 37.95  .30006 1.3085 164.8 21.8 5035 117
2020 07 12 04  19 53 55.118   -35 56 50.98  .30009 1.3085 164.8 21.8 5079 117
2020 07 12 05  19 53 56.308   -35 56 03.98  .30012 1.3086 164.8 21.8 5122 117
2020 07 12 06  19 53 57.497   -35 55 16.94  .30015 1.3086 164.8 21.8 5166 117
2020 07 12 07  19 53 58.683   -35 54 29.87  .30018 1.3087 164.8 21.8 5210 117
2020 07 12 08  19 53 59.866   -35 53 42.77  .30021 1.3087 164.9 21.8 5255 117
2020 07 12 09  19 54 01.047   -35 52 55.63  .30024 1.3088 164.9 21.8 5300 117
2020 07 12 10  19 54 02.226   -35 52 08.46  .30027 1.3088 164.9 21.8 5345 117
2020 07 12 11  19 54 03.402   -35 51 21.25  .30030 1.3089 164.9 21.8 5391 117
2020 07 12 12  19 54 04.576   -35 50 34.01  .30033 1.3089 164.9 21.8 5436 117
2020 07 12 13  19 54 05.748   -35 49 46.74  .30036 1.3090 165.0 21.8 5483 117
2020 07 12 14  19 54 06.917   -35 48 59.43  .30039 1.3090 165.0 21.8 5529 117
2020 07 12 15  19 54 08.084   -35 48 12.09  .30042 1.3091 165.0 21.8 5576 117